GLOBALSTAR M079

Last updated on Sat Sep 05 2026 00:03:15 GMT+0000 (Coordinated Universal Time)

1 37188U 10054A 26247.33922214 -.00000088 00000+0 89044-4 0 9999 2 37188 52.0018 227.7199 0000368 116.3034 30.7529 12.62267283732543
UTC large
Height (km)
Speed (km/s)
/
Latitude / Longitude
Inclination (degrees)
Orbital Period (minutes)
Azimuth
Elevation
Range (km)
Doppler Factor

Next 0 passes for location: London (51.5072 / 0.1276)

No passes found over London.
GLOBALSTAR M079